This is the latest recevied weather packets stored in our database for station/object YF9UAG-17. If no packets are shown the sender has not sent any weather packets the latest 10 day(s).
| Time | Temp. | Humidity | Pressure | Rain* | Wind** | Luminosity | Snow |
|---|---|---|---|---|---|---|---|
| 1788067614 | 28.89° C | 50% | 1031.8 hPa | - | - | - | - |
| 1788067012 | 28.33° C | 50% | 1031.8 hPa | - | - | - | - |
| 1788066412 | 28.33° C | 51% | 1031.9 hPa | - | - | - | - |
| 1788065807 | 28.33° C | 51% | 1032.1 hPa | - | - | - | - |
| 1788065205 | 28.33° C | 51% | 1032.1 hPa | - | - | - | - |
| 1788064602 | 28.33° C | 51% | 1032.3 hPa | - | - | - | - |
| 1788064000 | 27.78° C | 52% | 1032.4 hPa | - | - | - | - |
| 1788063399 | 28.33° C | 51% | 1032.5 hPa | - | - | - | - |
| 1788062795 | 28.33° C | 50% | 1032.8 hPa | - | - | - | - |
| 1788062197 | 28.33° C | 56% | 1032.9 hPa | - | - | - | - |
| 1788061591 | 27.78° C | 52% | 1033 hPa | - | - | - | - |
| 1788060988 | 27.78° C | 52% | 1033.2 hPa | - | - | - | - |
| 1788060386 | 27.78° C | 53% | 1033.3 hPa | - | - | - | - |
| 1788059784 | 27.78° C | 51% | 1033.5 hPa | - | - | - | - |
| 1788059181 | 27.22° C | 53% | 1033.5 hPa | - | - | - | - |
| 1788058579 | 27.22° C | 54% | 1033.7 hPa | - | - | - | - |
| 1788057978 | 27.22° C | 55% | 1033.8 hPa | - | - | - | - |
| 1788057376 | 27.22° C | 54% | 1034 hPa | - | - | - | - |
| 1788056772 | 27.22° C | 56% | 1034.1 hPa | - | - | - | - |
| 1788056170 | 27.22° C | 57% | 1034.1 hPa | - | - | - | - |
| 1788055572 | 27.22° C | 57% | 1034 hPa | - | - | - | - |
| 1788054965 | 26.67° C | 58% | 1034.1 hPa | - | - | - | - |
| 1788054363 | 27.22° C | 57% | 1034.1 hPa | - | - | - | - |
| 1788053762 | 27.22° C | 56% | 1034.1 hPa | - | - | - | - |
| 1788053158 | 26.67° C | 56% | 1034.2 hPa | - | - | - | - |
* Rain since midnight (hover to see other rain measurements)
** Current wind speed in m/s (hover to see current wind gust speed)